ASTRA 2D (26638 NORAD) Tracking and Keplerian Element Data

This shows tracking and keplerian element data for the satellite.

Feedback or suggestion? Click here.




ElementValue
Catalog26638
NameASTRA 2D
Epoch Orbit4035
Epoch Day12.27667747
Epoch Year2023
RAAN58.8691
Inclination7.7344
Eccentricity0.0001847
Argument of Perigee227.3965
Mean Anonmoly308.5863
Mean Motion1.00276875
Decay Rate1.43E-06
L11 26638U 00081A 23012.27667747 .00000143 00000+0 00000+0 0 9994
L22 26638 7.7344 58.8691 0001847 227.3965 308.5863 1.00276875 40354



Live tracking and technical data element details for ASTRA 2D (NORAD 26638). ASTRA 2D can be tracked NOW for your location showing map with azimuth and elevation plus other details from your city location.







IsCatalogInMostPopularTable: catalog: 26638, numindb: 300
Update: records affected: 1



GetName: 26638 ASTRA 2D

Hit Count: updated at: Thu, 15 May 2025 18:52:29 GMT